[[{"header":{"parameterUnit":"m.s-1","parameterCategory":1,"la1":30.2991,"la2":30.254,"lo1":-89.0895,"lo2":-89.0444,"dy":0.0017,"dx":0.0017,"nx":28,"ny":28,"refTime":"2024-04-26T03:00:00:Z","depth":0,"parameterNumber":2,"parameterNumberName":"U-component_of_WINDS"},"data":[0,0,0,0,0,0,0,0,0,0,0,0,0,0,0,0,0,0,0,0,0,0,0,0,0,0,0,0,0,0,0,0,0,0,0,0,0,0,0,0,0,0,0,0,0,0,0,0,0,0,0,0,0,0,0,0,0,0,-0.2003,-0.2002,0,-0.1918,-0.1917,-0.1916,-0.1869,-0.1869,-0.1869,-0.1869,-0.1784,-0.1782,-0.1779,0,0,0,0,0,0,0,0,0,0,0,0,0,-0.2126,-0.2124,-0.2003,-0.2002,-0.2001,-0.1918,-0.1917,-0.1916,-0.1869,-0.1869,-0.1869,-0.1869,-0.1784,-0.1782,-0.1779,0,0,0,0,0,0,0,0,0,0,0,0,0,-0.206,-0.2123,-0.2003,-0.1967,-0.1963,-0.1919,-0.1917,-0.1916,-0.1869,-0.1869,-0.1869,-0.1868,-0.1785,-0.1782,-0.1779,-0.1764,0,0,-0.1769,-0.1768,0,0,0,0,0,0,0,0,-0.2064,-0.2055,-0.1974,-0.197,-0.1965,-0.1904,-0.1929,-0.1865,-0.1869,-0.1905,-0.1869,-0.1868,-0.1824,-0.1818,-0.1802,-0.176,-0.1756,-0.1769,-0.1767,-0.1766,-0.1765,0,0,0,0,0,0,0,-0.2068,-0.2059,-0.1969,-0.1972,-0.1967,-0.1956,-0.1947,-0.1917,-0.1867,-0.1902,-0.1898,-0.1889,-0.1822,-0.1805,-0.18,-0.1755,-0.1769,-0.1766,-0.1764,-0.1763,-0.1696,-0.1697,0,0,0,0,0,0,-0.2078,-0.2063,-0.1972,-0.1967,-0.2015,-0.1954,-0.1943,-0.1924,-0.1867,-0.1858,-0.1889,-0.1887,-0.1811,-0.1804,-0.1797,-0.1776,-0.1766,-0.1763,-0.1761,-0.1696,-0.1697,-0.1697,0,0,0,0,0,0,-0.2081,-0.2071,-0.1975,-0.2014,-0.2001,-0.1952,-0.1931,-0.1922,-0.1906,-0.1857,-0.1848,-0.1882,-0.181,-0.1801,-0.1772,-0.1772,-0.1761,-0.1758,-0.1696,-0.1696,-0.1697,-0.1733,0,0,0,0,0,0,-0.2085,-0.2072,-0.2065,-0.2014,-0.1999,-0.1952,-0.1931,-0.1921,-0.19,-0.1897,-0.1848,-0.184,-0.181,-0.1777,-0.1769,-0.1768,-0.1756,-0.1696,-0.1696,-0.1697,-0.1732,-0.1735,-0.1737,0,0,0,0,0,-0.2089,-0.2079,-0.2065,-0.2054,-0.1989,-0.1952,-0.1944,-0.1909,-0.1901,-0.1894,-0.1863,-0.1841,-0.1773,-0.1775,-0.1765,-0.1763,-0.1696,-0.1696,-0.1697,-0.1731,-0.1734,-0.1737,0,0,0,0,0,0,-0.2132,-0.2072,-0.2056,-0.2028,-0.1996,-0.1944,-0.1935,-0.1914,-0.1883,-0.1881,-0.184,-0.1829,-0.1804,-0.178,-0.1783,-0.1745,-0.1732,-0.1731,-0.1762,-0.1765,-0.1767,-0.1774,-0.1753,0,0,0,0,0,-0.2138,-0.2112,-0.2061,-0.2042,-0.2027,-0.1984,-0.1966,-0.1942,-0.1907,-0.1893,-0.186,-0.1827,-0.1798,-0.178,-0.1751,-0.1728,-0.1717,-0.1722,-0.1725,-0.1727,-0.1726,-0.1713,-0.1715,-0.1698,-0.1698,-0.1698,0,0,-0.2151,-0.2115,-0.2101,-0.205,-0.2022,-0.1997,-0.1972,-0.1947,-0.1928,-0.1889,-0.186,-0.1834,-0.1795,-0.177,-0.1757,-0.1749,-0.1728,-0.1727,-0.173,-0.1727,-0.1714,-0.1715,-0.1717,-0.1698,-0.1698,-0.1698,0,0,-0.2161,-0.2131,-0.2112,-0.2084,-0.2042,-0.2013,-0.2009,-0.1961,-0.1942,-0.1912,-0.1883,-0.186,-0.1811,-0.1784,-0.1765,-0.1765,-0.1745,-0.1757,-0.1771,-0.1759,-0.176,-0.1761,-0.1762,-0.1763,-0.1756,-0.1756,-0.1756,0,-0.2183,-0.2143,-0.2105,-0.2081,-0.206,-0.2023,-0.2004,-0.1979,-0.193,-0.1917,-0.1908,-0.1847,-0.1818,-0.1786,-0.1786,-0.1771,-0.1765,-0.1762,-0.1763,-0.1764,-0.1764,-0.1764,-0.1765,-0.1758,-0.1758,-0.1758,-0.1758,0,-0.2172,-0.2145,-0.2134,-0.2087,-0.2065,-0.2043,-0.2003,-0.1985,-0.1963,-0.1936,-0.1906,-0.187,-0.1833,-0.1824,-0.1802,-0.1789,-0.1785,-0.1771,-0.1757,-0.1768,-0.1768,-0.1768,-0.1761,-0.176,-0.176,-0.1759,0,0,-0.2207,-0.2139,-0.2136,-0.2114,-0.2065,-0.2043,-0.2021,-0.1984,-0.197,-0.1937,-0.1918,-0.1877,-0.1864,-0.1841,-0.1816,-0.1806,-0.1809,-0.1792,-0.1791,-0.1797,-0.1793,-0.1805,-0.1806,-0.1795,-0.1795,-0.1795,-0.1797,0,-0.2211,-0.2167,-0.2133,-0.2103,-0.2078,-0.2043,-0.2023,-0.1991,-0.1965,-0.1941,-0.1912,-0.1885,-0.1868,-0.1854,-0.1842,-0.1812,-0.1808,-0.1811,-0.1777,-0.1777,-0.1789,-0.1806,-0.1818,-0.1821,-0.1796,-0.1796,-0.1796,0,-0.2209,-0.2177,-0.2145,-0.2098,-0.2086,-0.2069,-0.2033,-0.201,-0.1973,-0.1955,-0.193,-0.1905,-0.188,-0.1868,-0.1834,-0.1837,-0.1821,-0.1804,-0.1803,-0.1799,-0.1788,-0.1803,-0.1822,-0.1823,-0.1796,-0.1796,-0.1796,0,-0.2239,-0.2188,-0.2162,-0.2144,-0.2089,-0.2078,-0.2055,-0.2018,-0.1998,-0.1967,-0.1954,-0.1921,-0.1903,-0.1878,-0.1844,-0.1838,-0.1813,-0.1799,-0.1798,-0.1799,-0.1795,-0.1796,-0.1812,-0.1784,-0.1784,-0.1784,-0.1784,0,-0.2247,-0.2229,-0.2174,-0.2159,-0.2137,-0.2098,-0.2078,-0.2052,-0.202,-0.1999,-0.1967,-0.1948,-0.1904,-0.188,-0.1853,-0.183,-0.1822,-0.1807,-0.18,-0.181,-0.1812,-0.18,-0.1799,-0.1784,-0.1784,-0.1784,-0.1784,0,-0.2277,-0.224,-0.2209,-0.2159,-0.2146,-0.2133,-0.2091,-0.2075,-0.2047,-0.2021,-0.2012,-0.1969,-0.1939,-0.1903,-0.1861,-0.1843,-0.1823,-0.1812,-0.1835,-0.1831,-0.1833,-0.1834,-0.1842,-0.1842,-0.1814,-0.1814,-0.1814,0,-0.2285,-0.227,-0.2218,-0.2202,-0.2179,-0.2153,-0.2132,-0.2094,-0.2074,-0.2031,-0.2021,-0.1988,-0.196,-0.1915,-0.188,-0.1848,-0.1837,-0.1842,-0.1832,-0.1843,-0.1838,-0.1839,-0.1838,-0.1845,-0.1846,-0.1846,-0.1846,0,-0.2303,-0.2285,-0.2257,-0.2222,-0.2199,-0.217,-0.214,-0.2128,-0.2083,-0.2063,-0.2032,-0.201,-0.1968,-0.1937,-0.1901,-0.1877,-0.1855,-0.185,-0.1848,-0.1858,-0.1873,-0.1866,-0.1843,-0.185,-0.185,-0.1849,-0.1849,-0.1849,-0.2322,-0.2308,-0.2269,-0.2239,-0.2212,-0.2185,-0.2167,-0.2137,-0.211,-0.2072,-0.2051,-0.2021,-0.1985,-0.1934,-0.1912,-0.1888,-0.188,-0.1877,-0.1877,-0.1877,-0.188,-0.1876,-0.1881,-0.1881,-0.1881,-0.1881,-0.1881,0,-0.234,-0.2313,-0.2286,-0.2244,-0.2221,-0.22,-0.2166,-0.2148,-0.2122,-0.209,-0.2063,-0.2028,-0.1997,-0.196,-0.1927,-0.1915,-0.1904,-0.1908,-0.1909,-0.1904,-0.1889,-0.1894,-0.1918,-0.1918,-0.1918,-0.1918,-0.1918,-0.1918,-0.2346,-0.232,-0.2298,-0.2259,-0.2233,-0.2202,-0.2185,-0.2159,-0.2134,-0.2096,-0.207,-0.2046,-0.2012,-0.1976,-0.1948,-0.1938,-0.1927,-0.1935,-0.1922,-0.1908,-0.1905,-0.1902,-0.1907,-0.1933,-0.1933,-0.1939,-0.1939,-0.1939]},{"header":{"parameterUnit":"m.s-1","parameterCategory":1,"la1":30.2991,"la2":30.254,"lo1":-89.0895,"lo2":-89.0444,"dy":0.0017,"dx":0.0017,"nx":28,"ny":28,"refTime":"2024-04-26T03:00:00:Z","depth":0,"parameterNumber":3,"parameterNumberName":"V-component_of_WINDS"},"data":[0,0,0,0,0,0,0,0,0,0,0,0,0,0,0,0,0,0,0,0,0,0,0,0,0,0,0,0,0,0,0,0,0,0,0,0,0,0,0,0,0,0,0,0,0,0,0,0,0,0,0,0,0,0,0,0,0,0,4.3557,4.3557,0,4.353,4.353,4.3529,4.3495,4.3494,4.3494,4.3493,4.3464,4.3464,4.3463,0,0,0,0,0,0,0,0,0,0,0,0,0,4.3578,4.3578,4.3557,4.3557,4.3556,4.353,4.353,4.3529,4.3495,4.3494,4.3493,4.3493,4.3464,4.3464,4.3463,0,0,0,0,0,0,0,0,0,0,0,0,0,4.3562,4.3578,4.3557,4.3536,4.3534,4.353,4.353,4.3529,4.3495,4.3494,4.3493,4.3493,4.3464,4.3464,4.3463,4.3478,0,0,4.3462,4.3462,0,0,0,0,0,0,0,0,4.3563,4.3561,4.3539,4.3537,4.3535,4.3515,4.3526,4.3512,4.3495,4.351,4.3493,4.3492,4.3481,4.348,4.3476,4.3476,4.3475,4.3462,4.3462,4.3462,4.3462,0,0,0,0,0,0,0,4.3564,4.3562,4.3546,4.3539,4.3536,4.3528,4.3524,4.3523,4.35,4.3508,4.3506,4.3503,4.348,4.3477,4.3475,4.3475,4.3462,4.3462,4.3461,4.3461,4.3485,4.3486,0,0,0,0,0,0,4.3568,4.3563,4.3547,4.3545,4.3547,4.3528,4.3524,4.3522,4.35,4.3496,4.3504,4.3502,4.3478,4.3476,4.3474,4.3489,4.3462,4.3461,4.3461,4.3484,4.3485,4.3486,0,0,0,0,0,0,4.3569,4.3567,4.3548,4.3554,4.355,4.3528,4.3526,4.3522,4.3519,4.3497,4.3493,4.3505,4.3477,4.3475,4.3477,4.3487,4.3461,4.3461,4.3483,4.3484,4.3485,4.3519,0,0,0,0,0,0,4.3569,4.3567,4.3573,4.3554,4.355,4.3552,4.3527,4.3522,4.3518,4.3515,4.3497,4.3493,4.3476,4.3478,4.3477,4.3486,4.346,4.3482,4.3483,4.3485,4.3517,4.3521,4.3525,0,0,0,0,0,4.357,4.3583,4.3573,4.3571,4.3557,4.3553,4.355,4.3531,4.3519,4.3524,4.3511,4.3493,4.3487,4.3478,4.3477,4.3487,4.3481,4.3483,4.3485,4.3515,4.352,4.3525,0,0,0,0,0,0,4.3603,4.358,4.3569,4.3576,4.3567,4.3547,4.3552,4.3538,4.3531,4.3528,4.3505,4.3501,4.3506,4.3497,4.3488,4.3499,4.3481,4.3483,4.3505,4.351,4.3514,4.3515,4.346,0,0,0,0,0,4.3611,4.361,4.359,4.3598,4.3594,4.3574,4.3572,4.3558,4.3547,4.3543,4.3529,4.3519,4.3514,4.3512,4.3507,4.3516,4.3511,4.3522,4.3526,4.353,4.3531,4.3535,4.3539,4.3492,4.3492,4.3492,0,0,4.3627,4.3615,4.3615,4.3604,4.3595,4.3594,4.3571,4.3571,4.357,4.3543,4.3544,4.3534,4.3521,4.3527,4.3528,4.3519,4.3543,4.3532,4.3535,4.3534,4.3537,4.3541,4.3545,4.3494,4.3493,4.3493,0,0,4.3656,4.3647,4.3653,4.3645,4.3632,4.3619,4.362,4.3603,4.3595,4.3597,4.3576,4.3575,4.3568,4.3559,4.3554,4.3581,4.3565,4.358,4.3601,4.3605,4.3609,4.3612,4.3621,4.3624,4.3582,4.3582,4.3582,0,4.3678,4.3676,4.3657,4.3659,4.3654,4.3631,4.3636,4.3629,4.3615,4.3612,4.3602,4.3593,4.3583,4.3586,4.3593,4.359,4.359,4.3581,4.361,4.3613,4.3615,4.3624,4.3627,4.3584,4.3584,4.3584,4.3583,0,4.3703,4.3702,4.3708,4.3696,4.3692,4.3696,4.3677,4.3676,4.3663,4.3651,4.3653,4.364,4.3631,4.3632,4.3619,4.3633,4.3628,4.3614,4.3596,4.3622,4.3629,4.3632,4.3587,4.3586,4.3585,4.3585,0,0,4.3749,4.3728,4.373,4.3724,4.3709,4.3708,4.3711,4.3703,4.3702,4.3694,4.3695,4.369,4.3678,4.3672,4.3658,4.3662,4.3684,4.3648,4.3647,4.3654,4.3698,4.3707,4.3711,4.3674,4.3675,4.3675,4.3699,0,4.3774,4.3777,4.3761,4.3768,4.3767,4.3746,4.3748,4.3739,4.3728,4.3725,4.3713,4.371,4.3695,4.3691,4.3694,4.3681,4.3692,4.3679,4.3674,4.3674,4.3676,4.3715,4.3724,4.3747,4.3702,4.3702,4.3702,0,4.3803,4.3797,4.3805,4.3789,4.3788,4.379,4.3782,4.3781,4.377,4.3762,4.3756,4.3741,4.3742,4.3726,4.3727,4.3718,4.3715,4.3709,4.3709,4.3707,4.3688,4.3712,4.3754,4.3757,4.3707,4.3706,4.3706,0,4.3835,4.3829,4.3832,4.3828,4.3811,4.3813,4.3806,4.3795,4.3791,4.3785,4.3782,4.3776,4.3772,4.3767,4.375,4.374,4.3753,4.3735,4.3745,4.3746,4.3747,4.3747,4.3788,4.3748,4.3748,4.3748,4.3748,0,4.3864,4.3869,4.3847,4.3848,4.3853,4.3835,4.3841,4.3831,4.3822,4.3821,4.3803,4.3803,4.3782,4.3779,4.3766,4.3768,4.3767,4.376,4.3756,4.3761,4.3762,4.3757,4.3755,4.3749,4.3749,4.3749,4.3749,0,4.3899,4.3885,4.3887,4.3871,4.3867,4.3872,4.3858,4.3859,4.3848,4.3847,4.3846,4.3829,4.3825,4.3808,4.38,4.3792,4.3798,4.3792,4.3802,4.3799,4.3809,4.3808,4.3848,4.3852,4.3811,4.3811,4.3812,0,4.3918,4.3921,4.3906,4.3905,4.3898,4.3897,4.3893,4.3876,4.3874,4.3862,4.3865,4.386,4.3854,4.3849,4.3835,4.3829,4.3822,4.3836,4.3821,4.3825,4.3821,4.382,4.382,4.3839,4.384,4.384,4.3841,0,4.3951,4.3944,4.3941,4.3935,4.3932,4.3926,4.392,4.392,4.39,4.3898,4.3895,4.3891,4.3884,4.3878,4.387,4.3863,4.3848,4.3846,4.3848,4.3851,4.3857,4.3853,4.3809,4.3845,4.3844,4.3844,4.3844,4.3843,4.3978,4.398,4.397,4.3966,4.396,4.3954,4.3954,4.3944,4.3941,4.3934,4.3924,4.3921,4.3911,4.3899,4.3893,4.389,4.3882,4.3885,4.3885,4.3886,4.3888,4.3859,4.3889,4.3889,4.3888,4.3888,4.3888,0,4.401,4.4002,4.4,4.3991,4.3989,4.3977,4.3969,4.3968,4.3966,4.3958,4.3954,4.395,4.3945,4.3932,4.3926,4.3926,4.3919,4.3925,4.3924,4.3922,4.3896,4.3894,4.3931,4.3931,4.3931,4.3931,4.3931,4.3931,4.4026,4.4028,4.402,4.402,4.4012,4.401,4.4007,4.4001,4.3995,4.3991,4.3988,4.3979,4.3969,4.3962,4.3958,4.3954,4.3952,4.3959,4.3953,4.3928,4.3924,4.392,4.3919,4.3959,4.3959,4.398,4.398,4.398]}]]